Flag for Norway Weather past 2 weeks in Orkanger/Fannrem, Norway

Now
60 °F

Refreshingly cool.


Feels Like: 60 °F
Forecast: 40 / 50 °F
Wind: 3 mph from Southeast

Location: Vinjeora Ii

Current Time: Oct 24, 2014 at 12:38:46 PM

Latest Report: Oct 24, 2014 at 12:00 PM


Visibility: N/A

Pressure: 29.57 "Hg

Humidity: 45%

Dew point: 38 °F

Location of Orkanger/FannremLocation

Historic Weather in Orkanger/Fannrem — Graph

°F

Orkanger/Fannrem temperature yesterday

Maximum temperature yesterday: 54 °F (at 3:00 PM)
Minimum temperature yesterday: 49 °F (at 3:00 AM)
Average temperature yesterday: 52 °F

Past Weeks' High & Low Weather Summary

 TemperatureHumidityPressure
High59 °F (Oct 24, 11:00 AM)93% (Oct 21, 5:00 AM)30.06 "Hg (Oct 21, 5:00 AM)
Low36 °F (Oct 15, 2:00 AM)43% (Oct 24, 8:00 AM)29.21 "Hg (Oct 19, 10:00 PM)
Average47 °F69%29.71 "Hg
* Reported Oct 9 11:00 AM — Oct 24 11:00 AM, Orkanger/Fannrem, Weather by CustomWeather, © 2014

Note: Actual official high and low records may vary slightly from our data, if they occured in-between our weather recording intervals... More about our weather records

Advertising

Orkanger/Fannrem weather history for previous 24 hours

 ConditionsComfort  
Time TempWeatherWind HumidityBarometerVisibility
11:00 AM
Oct 24
59 °FRefreshingly cool.3 mph44%29.56 "HgN/A
10:00 AM59 °FRefreshingly cool.2 mph43%29.55 "HgN/A
9:00 AM59 °FRefreshingly cool.3 mph43%29.55 "HgN/A
8:00 AM59 °FRefreshingly cool.5 mph43%29.50 "HgN/A
7:00 AM58 °FRefreshingly cool.6 mph47%29.50 "HgN/A
6:00 AM57 °FRefreshingly cool.7 mph48%29.50 "HgN/A
5:00 AM55 °FCool.7 mph54%29.54 "HgN/A
4:00 AM55 °FRefreshingly cool.5 mph52%29.56 "HgN/A
3:00 AM52 °FCool.6 mph63%29.58 "HgN/A
2:00 AM52 °FCool.7 mph62%29.60 "HgN/A
1:00 AM55 °FCool.8 mph49%29.62 "HgN/A
12:00 AM54 °FCool.8 mph51%29.64 "HgN/A
11:00 PM
Oct 23
53 °FCool.7 mph52%29.66 "HgN/A
10:00 PM54 °FCool.7 mph50%29.67 "HgN/A
9:00 PM54 °FCool.7 mph49%29.67 "HgN/A
8:00 PM53 °FCool.8 mph49%29.68 "HgN/A
7:00 PM53 °FCool.7 mph48%29.68 "HgN/A
6:00 PM54 °FCool.7 mph49%29.67 "HgN/A
5:00 PM54 °FCool.6 mph47%29.68 "HgN/A
4:00 PM54 °FCool.7 mph47%29.68 "HgN/A
3:00 PM54 °FCool.7 mph46%29.68 "HgN/A
2:00 PM53 °FCool.8 mph47%29.67 "HgN/A
1:00 PM53 °FCool.8 mph46%29.67 "HgN/A
12:00 PM53 °FCool.9 mph45%29.69 "HgN/A
Weather by CustomWeather, © 2014

See weather overviewHow to use our weather pages